FW0468 Weather Reports


Display with metric or nautical units.
time (UTC)temp
F
wind
direction
speed
MPH
gust
MPH
rain 1hr
in
rain 24hr
in
rain mn
in
humidity
%
barometer
mb
20210119183514 56 285 4.0 11.0 0.00 0.00 0.00 46 1026.8
20210119183019 57 260 1.0 8.0 0.00 0.00 0.00 48 1027.0
20210119182511 57 278 2.0 8.0 0.00 0.00 0.00 46 1027.0
20210119182014 57 281 4.0 11.0 0.00 0.00 0.00 47 1027.1
20210119181520 57 281 5.0 11.0 0.00 0.00 0.00 48 1027.3
20210119180638 57 283 7.0 14.0 0.00 0.00 0.00 47 1027.5
20210119180229 57 250 6.0 10.0 0.00 0.00 0.00 49 1027.4
20210119174635 57 286 4.0 11.0 0.00 0.00 0.00 46 1027.5
20210119174056 57 267 4.0 11.0 0.00 0.00 0.00 45 1027.4
20210119172541 56 261 4.0 10.0 0.00 0.00 0.00 46 1027.6
20210119171703 57 261 2.0 12.0 0.00 0.00 0.00 44 1027.7
20210119171037 57 215 8.0 12.0 0.00 0.00 0.00 44 1027.6
20210119170107 59 259 7.0 11.0 0.00 0.00 0.00 42 1027.8
20210119165531 59 250 3.0 13.0 0.00 0.00 0.00 45 1027.8
20210119165037 58 252 8.0 13.0 0.00 0.00 0.00 44 1027.8
20210119164553 58 225 6.0 11.0 0.00 0.00 0.00 45 1027.9
20210119164029 58 251 7.0 14.0 0.00 0.00 0.00 44 1027.9
20210119163531 58 277 3.0 10.0 0.00 0.00 0.00 49 1027.8
20210119163106 57 250 2.0 10.0 0.00 0.00 0.00 52 1027.7
20210119162523 56 240 4.0 10.0 0.00 0.00 0.00 48 1027.8
20210119162045 56 236 4.0 9.0 0.00 0.00 0.00 50 1027.8
20210119161605 55 255 6.0 9.0 0.00 0.00 0.00 51 1027.8
20210119161029 55 224 4.0 9.0 0.00 0.00 0.00 53 1027.9
20210119160524 55 246 4.0 9.0 0.00 0.00 0.00 54 1028.0
20210119160104 54 288 1.0 9.0 0.00 0.00 0.00 56 1028.1
20210119155520 53 252 3.0 10.0 0.00 0.00 0.00 58 1028.0
20210119155028 53 237 4.0 7.0 0.00 0.00 0.00 57 1028.0
20210119154521 53 237 2.0 8.0 0.00 0.00 0.00 58 1028.0
20210119154023 53 229 2.0 5.0 0.00 0.00 0.00 57 1028.0
20210119153530 53 247 2.0 6.0 0.00 0.00 0.00 55 1027.9
20210119153036 53 265 3.0 6.0 0.00 0.00 0.00 56 1028.0
20210119152520 52 246 2.0 5.0 0.00 0.00 0.00 55 1027.9
20210119152021 51 263 0.0 4.0 0.00 0.00 0.00 56 1027.8
20210119151520 50 263 1.0 4.0 0.00 0.00 0.00 57 1027.6
20210119151012 50 240 1.0 6.0 0.00 0.00 0.00 59 1027.4
20210119150514 49 236 3.0 6.0 0.00 0.00 0.00 58 1027.4
20210119150117 49 211 1.0 5.0 0.00 0.00 0.00 57 1027.3
20210119145558 48 217 2.0 6.0 0.00 0.00 0.00 57 1027.2
20210119145059 48 209 3.0 6.0 0.00 0.00 0.00 56 1027.1
20210119144740 48 208 3.0 5.0 0.00 0.00 0.00 59 1027.0
20210119144103 47 237 3.0 5.0 0.00 0.00 0.00 58 1026.9
20210119143553 47 11 0.0 1.0 0.00 0.00 0.00 60 1026.8
20210119143159 45 13 0.0 0.0 0.00 0.00 0.00 61 1026.8
20210119142614 44 11 0.0 0.0 0.00 0.00 0.00 60 1026.7
20210119142050 44 11 0.0 0.0 0.00 0.00 0.00 62 1026.6
20210119141702 44 11 0.0 0.0 0.00 0.00 0.00 61 1026.4
20210119141047 42 11 0.0 0.0 0.00 0.00 0.00 63 1026.4
20210119140546 42 11 0.0 0.0 0.00 0.00 0.00 65 1026.3
20210119140114 41 11 0.0 0.0 0.00 0.00 0.00 65 1026.2
20210119135546 41 209 0.0 0.0 0.00 0.00 0.00 68 1026.3
20210119135042 40 157 0.0 0.0 0.00 0.00 0.00 69 1026.2
20210119134652 39 157 0.0 0.0 0.00 0.00 0.00 68 1026.1
20210119134121 39 157 0.0 0.0 0.00 0.00 0.00 68 1026.1
20210119133538 38 157 0.0 0.0 0.00 0.00 0.00 72 1026.1
20210119133050 38 157 0.0 0.0 0.00 0.00 0.00 70 1026.0
20210119132542 37 157 0.0 0.0 0.00 0.00 0.00 68 1025.9
20210119132036 37 157 0.0 2.0 0.00 0.00 0.00 68 1025.9
20210119131637 36 157 0.0 2.0 0.00 0.00 0.00 69 1025.8
20210119131037 35 157 0.0 0.0 0.00 0.00 0.00 70 1025.7
20210119130530 35 157 0.0 0.0 0.00 0.00 0.00 71 1025.6
20210119130136 35 157 0.0 0.0 0.00 0.00 0.00 72 1025.6
20210119125527 35 157 0.0 0.0 0.00 0.00 0.00 72 1025.6
20210119125054 35 157 0.0 0.0 0.00 0.00 0.00 71 1025.5
20210119124534 36 157 0.0 0.0 0.00 0.00 0.00 70 1025.5
20210119124046 36 157 0.0 0.0 0.00 0.00 0.00 70 1025.4
20210119123537 36 157 0.0 0.0 0.00 0.00 0.00 69 1025.5
20210119123050 37 157 0.0 0.0 0.00 0.00 0.00 67 1025.6
20210119122527 36 157 0.0 1.0 0.00 0.00 0.00 68 1025.3
20210119122045 36 157 0.0 1.0 0.00 0.00 0.00 69 1025.5
20210119121535 36 157 0.0 2.0 0.00 0.00 0.00 71 1025.4
20210119121028 36 157 0.0 2.0 0.00 0.00 0.00 69 1025.4
20210119120525 37 157 0.0 0.0 0.00 0.00 0.00 68 1025.3
20210119120116 37 157 0.0 0.0 0.00 0.00 0.00 66 1025.3
20210119115532 37 157 0.0 0.0 0.00 0.00 0.00 66 1025.1
20210119115031 37 157 0.0 0.0 0.00 0.00 0.00 65 1025.0
20210119114554 37 157 0.0 1.0 0.00 0.00 0.00 66 1024.9
20210119114046 37 157 0.0 2.0 0.00 0.00 0.00 66 1024.9
20210119113521 37 157 0.0 2.0 0.00 0.00 0.00 66 1024.8
20210119113022 37 157 0.0 1.0 0.00 0.00 0.00 66 1024.6
20210119112519 37 157 0.0 1.0 0.00 0.00 0.00 66 1024.3
20210119112032 37 157 0.0 0.0 0.00 0.00 0.00 65 1024.3
20210119111535 37 157 0.0 2.0 0.00 0.00 0.00 66 1024.1
20210119111027 37 157 0.0 5.0 0.00 0.00 0.00 66 1024.1
20210119110519 36 157 1.0 5.0 0.00 0.00 0.00 67 1023.8
20210119110036 36 149 1.0 5.0 0.00 0.00 0.00 68 1023.6
20210119105525 36 209 0.0 0.0 0.00 0.00 0.00 67 1023.7
20210119105025 36 209 0.0 0.0 0.00 0.00 0.00 67 1023.7
20210119104529 37 209 0.0 0.0 0.00 0.00 0.00 65 1023.7
20210119104025 38 209 0.0 0.0 0.00 0.00 0.00 63 1023.8
20210119103520 38 209 0.0 0.0 0.00 0.00 0.00 62 1023.9
20210119103028 39 209 0.0 0.0 0.00 0.00 0.00 61 1023.9
20210119102524 39 209 0.0 0.0 0.00 0.00 0.00 60 1023.9
20210119102023 39 209 0.0 2.0 0.00 0.00 0.00 59 1023.9
20210119101537 40 209 0.0 3.0 0.00 0.00 0.00 59 1023.9
20210119101020 40 211 1.0 6.0 0.00 0.00 0.00 60 1023.9
20210119100520 40 207 1.0 6.0 0.00 0.00 0.00 60 1023.9
20210119100021 39 219 1.0 5.0 0.00 0.00 0.00 60 1023.9
20210119095516 39 219 0.0 4.0 0.00 0.00 0.00 61 1023.9
20210119095021 39 219 0.0 5.0 0.00 0.00 0.00 61 1024.0
20210119094517 39 219 0.0 5.0 0.00 0.00 0.00 62 1023.8
20210119094009 39 175 0.0 2.0 0.00 0.00 0.00 61 1023.8
20210119093202 39 175 0.0 0.0 0.00 0.00 0.00 60 1023.7
20210119092605 39 175 0.0 0.0 0.00 0.00 0.00 60 1023.7
20210119092107 39 175 0.0 0.0 0.00 0.00 0.00 60 1023.8
20210119091622 39 175 0.0 3.0 0.00 0.00 0.00 59 1023.7
20210119091058 39 175 0.0 3.0 0.00 0.00 0.00 59 1023.7
20210119090621 40 173 0.0 2.0 0.00 0.00 0.00 58 1023.7
20210119090136 40 173 0.0 1.0 0.00 0.00 0.00 57 1023.7
20210119085559 40 173 0.0 1.0 0.00 0.00 0.00 57 1023.7
20210119085059 40 173 0.0 2.0 0.00 0.00 0.00 57 1023.7
20210119084656 40 173 0.0 4.0 0.00 0.00 0.00 56 1023.6
20210119084102 41 174 1.0 6.0 0.00 0.00 0.00 56 1023.5
20210119083555 41 171 1.0 6.0 0.00 0.00 0.00 56 1023.6
20210119083218 41 183 1.0 5.0 0.00 0.00 0.00 56 1023.5
20210119082631 41 173 2.0 6.0 0.00 0.00 0.00 56 1023.5
20210119082051 41 188 1.0 6.0 0.00 0.00 0.00 56 1023.7
20210119081605 41 186 1.0 4.0 0.00 0.00 0.00 57 1023.6
20210119081049 41 186 0.0 4.0 0.00 0.00 0.00 56 1023.7
20210119080552 41 186 0.0 4.0 0.00 0.00 0.00 54 1023.7
20210119080319 42 191 0.0 3.0 0.00 0.00 0.00 53 1023.8
20210119075559 42 192 0.0 3.0 0.00 0.00 0.00 53 1023.8
20210119075056 42 194 0.0 4.0 0.00 0.00 0.00 53 1023.8
20210119074622 42 190 1.0 5.0 0.00 0.00 0.00 53 1023.8
20210119074046 42 192 0.0 5.0 0.00 0.00 0.00 53 1023.7
20210119073551 42 184 1.0 3.0 0.00 0.00 0.00 53 1023.7
20210119073129 42 178 0.0 2.0 0.00 0.00 0.00 54 1023.6
20210119072556 42 180 0.0 2.0 0.00 0.00 0.00 54 1023.7
20210119072045 42 183 0.0 2.0 0.00 0.00 0.00 53 1023.7
20210119071653 42 185 0.0 2.0 0.00 0.00 0.00 53 1023.8
20210119071128 42 183 0.0 2.0 0.00 0.00 0.00 52 1023.8
20210119070553 42 183 0.0 2.0 0.00 0.00 0.00 52 1023.7
20210119070120 42 183 0.0 1.0 0.00 0.00 0.00 52 1023.7
20210119065541 42 185 0.0 2.0 0.00 0.00 0.00 52 1023.6
20210119065046 42 185 0.0 2.0 0.00 0.00 0.00 52 1023.5
20210119064618 42 185 0.0 1.0 0.00 0.00 0.00 52 1023.4
20210119064055 43 185 0.0 3.0 0.00 0.00 0.00 53 1023.4
20210119063545 43 185 0.0 3.0 0.00 0.00 0.00 52 1023.5
20210119063112 43 185 0.0 3.0 0.00 0.00 0.00 52 1023.3
20210119062600 42 184 1.0 3.0 0.00 0.00 0.00 54 1023.1
20210119062037 41 188 0.0 1.0 0.00 0.00 0.00 54 1023.0
20210119061540 41 187 0.0 1.0 0.00 0.00 0.00 55 1022.9
20210119061057 42 186 0.0 1.0 0.00 0.00 0.00 54 1023.0
20210119060544 42 188 0.0 2.0 0.00 0.00 0.00 53 1023.0
20210119060054 41 189 0.0 2.0 0.00 0.00 0.00 55 1023.1
20210119055538 41 189 0.0 3.0 0.00 0.00 0.00 56 1023.1
20210119055054 40 191 0.0 1.0 0.00 0.00 0.00 57 1023.0
20210119054653 40 191 0.0 1.0 0.00 0.00 0.00 59 1023.0
20210119054042 39 191 0.0 2.0 0.00 0.00 0.00 59 1023.0
20210119053534 39 191 0.0 2.0 0.00 0.00 0.00 59 1023.0
20210119053109 39 273 0.0 0.0 0.00 0.00 0.00 60 1023.0
20210119052531 40 273 0.0 0.0 0.00 0.00 0.00 59 1023.0
20210119052033 40 273 0.0 0.0 0.00 0.00 0.00 58 1023.0
20210119051550 40 273 0.0 0.0 0.00 0.00 0.00 57 1023.0
20210119051031 41 273 0.0 0.0 0.00 0.00 0.00 57 1023.2
20210119050537 41 273 0.0 0.0 0.00 0.00 0.00 56 1023.3
20210119050057 42 273 0.0 0.0 0.00 0.00 0.00 55 1023.4
20210119045538 42 273 0.0 0.0 0.00 0.00 0.00 53 1023.4
20210119045042 42 273 0.0 0.0 0.00 0.00 0.00 54 1023.4
20210119044534 42 273 0.0 0.0 0.00 0.00 0.00 54 1023.4
20210119044032 42 273 0.0 0.0 0.00 0.00 0.00 54 1023.5
20210119043539 42 273 0.0 0.0 0.00 0.00 0.00 54 1023.4
20210119043054 42 273 0.0 0.0 0.00 0.00 0.00 54 1023.3
20210119042028 40 273 0.0 0.0 0.00 0.00 0.00 57 1023.4
20210119041613 40 273 0.0 0.0 0.00 0.00 0.00 58 1023.4
20210119041028 40 273 0.0 0.0 0.00 0.00 0.00 59 1023.3
20210119040533 40 273 0.0 0.0 0.00 0.00 0.00 59 1023.3
20210119040210 40 273 0.0 0.0 0.00 0.00 0.00 68 1023.2
20210119035526 40 273 0.0 0.0 0.00 0.00 0.00 65 1023.2
20210119035026 40 273 0.0 0.0 0.00 0.00 0.00 65 1023.1
20210119034543 40 273 0.0 0.0 0.00 0.00 0.00 67 1023.0
20210119034024 40 273 0.0 0.0 0.00 0.00 0.00 60 1022.9
20210119033523 40 273 0.0 0.0 0.00 0.00 0.00 64 1022.9
20210119033025 40 273 0.0 0.0 0.00 0.00 0.00 59 1022.6
20210119032531 40 273 0.0 0.0 0.00 0.00 0.00 59 1022.6
20210119032042 40 273 0.0 0.0 0.00 0.00 0.00 58 1022.5
20210119031548 40 273 0.0 0.0 0.00 0.00 0.00 63 1022.4
20210119031031 40 273 0.0 0.0 0.00 0.00 0.00 58 1022.4
20210119030527 40 273 0.0 0.0 0.00 0.00 0.00 58 1022.5
20210119030039 40 273 0.0 0.0 0.00 0.00 0.00 58 1022.4
20210119025528 41 273 0.0 0.0 0.00 0.00 0.00 59 1022.3
20210119025045 41 273 0.0 0.0 0.00 0.00 0.00 56 1022.1
20210119024545 41 273 0.0 0.0 0.00 0.00 0.00 56 1022.1
20210119024027 40 273 0.0 0.0 0.00 0.00 0.00 58 1022.0
20210119023539 39 273 0.0 0.0 0.00 0.00 0.00 59 1021.9
20210119023048 38 273 0.0 0.0 0.00 0.00 0.00 60 1021.9
20210119022540 38 273 0.0 0.0 0.00 0.00 0.00 63 1021.8
20210119022026 39 273 0.0 0.0 0.00 0.00 0.00 66 1021.7
20210119021541 39 273 0.0 0.0 0.00 0.00 0.00 61 1021.6
20210119021029 39 273 0.0 0.0 0.00 0.00 0.00 61 1021.6
20210119020520 39 273 0.0 0.0 0.00 0.00 0.00 65 1021.6
20210119020027 39 273 0.0 0.0 0.00 0.00 0.00 67 1021.7
20210119015519 40 273 0.0 0.0 0.00 0.00 0.00 61 1021.8
20210119015023 39 273 0.0 0.0 0.00 0.00 0.00 61 1021.8
20210119014546 40 273 0.0 0.0 0.00 0.00 0.00 59 1021.9
20210119014024 40 273 0.0 0.0 0.00 0.00 0.00 61 1021.9
20210119013522 41 273 0.0 0.0 0.00 0.00 0.00 59 1021.7
20210119013036 41 273 0.0 0.0 0.00 0.00 0.00 58 1021.8
20210119012530 41 273 0.0 0.0 0.00 0.00 0.00 56 1021.8
20210119012028 42 273 0.0 0.0 0.00 0.00 0.00 58 1021.8
20210119011522 44 273 0.0 0.0 0.00 0.00 0.00 50 1021.8
20210119011020 43 273 0.0 0.0 0.00 0.00 0.00 52 1021.9
20210119010520 43 273 0.0 1.0 0.00 0.00 0.00 57 1021.7
20210119010030 44 273 0.0 1.0 0.00 0.00 0.00 51 1021.7
20210119005521 43 273 0.0 0.0 0.00 0.00 0.00 52 1021.8
20210119005022 44 273 0.0 0.0 0.00 0.00 0.00 51 1021.7
20210119004538 44 273 0.0 0.0 0.00 0.00 0.00 51 1021.7
20210119004030 44 273 0.0 0.0 0.00 0.00 0.00 50 1021.6
20210119003523 44 273 0.0 0.0 0.00 0.00 0.00 50 1021.6
20210119003118 44 273 0.0 0.0 0.00 0.00 0.00 50 1021.6
20210119002520 44 273 0.0 0.0 0.00 0.00 0.00 50 1021.6
20210119002021 44 273 0.0 0.0 0.00 0.00 0.00 50 1021.6
20210119001518 45 273 0.0 0.0 0.00 0.00 0.00 50 1021.5
20210119001022 45 273 0.0 0.0 0.00 0.00 0.00 48 1021.5
20210119000527 45 273 0.0 0.0 0.00 0.00 0.00 49 1021.5
20210119000057 45 273 0.0 0.0 0.00 0.00 0.00 48 1021.4
20210118235520 46 273 0.0 0.0 0.00 0.00 0.00 47 1021.3
20210118235028 46 273 0.0 0.0 0.00 0.00 0.00 46 1021.4
20210118234523 47 273 0.0 0.0 0.00 0.00 0.00 45 1021.4
20210118234023 47 273 0.0 0.0 0.00 0.00 0.00 45 1021.4
20210118233518 47 273 0.0 0.0 0.00 0.00 0.00 45 1021.3
20210118233021 47 273 0.0 0.0 0.00 0.00 0.00 45 1021.3
20210118232520 48 273 0.0 0.0 0.00 0.00 0.00 44 1021.3
20210118232028 48 273 0.0 0.0 0.00 0.00 0.00 44 1021.4
20210118231536 49 273 0.0 0.0 0.00 0.00 0.00 43 1021.4
20210118231021 49 273 0.0 2.0 0.00 0.00 0.00 42 1021.2
20210118230524 49 273 0.0 2.0 0.00 0.00 0.00 42 1021.1
20210118230051 50 273 0.0 4.0 0.00 0.00 0.00 42 1021.2
20210118225526 50 273 0.0 8.0 0.00 0.00 0.00 42 1021.2
20210118225018 51 277 2.0 8.0 0.00 0.00 0.00 42 1021.1
20210118224534 51 273 3.0 7.0 0.00 0.00 0.00 38 1021.2
20210118224024 52 273 1.0 8.0 0.00 0.00 0.00 40 1021.1
20210118223517 53 267 4.0 8.0 0.00 0.00 0.00 37 1021.2
20210118223024 53 257 2.0 8.0 0.00 0.00 0.00 37 1021.2
20210118222522 53 255 4.0 9.0 0.00 0.00 0.00 37 1021.0
20210118222033 54 293 3.0 10.0 0.00 0.00 0.00 36 1021.0
20210118221543 54 324 4.0 10.0 0.00 0.00 0.00 36 1021.0
20210118221022 54 316 2.0 9.0 0.00 0.00 0.00 35 1021.1
20210118220524 54 300 5.0 9.0 0.00 0.00 0.00 34 1021.0
20210118220024 54 333 5.0 9.0 0.00 0.00 0.00 34 1021.0
20210118215530 55 265 4.0 9.0 0.00 0.00 0.00 35 1020.9
20210118215021 54 302 0.0 8.0 0.00 0.00 0.00 35 1020.8
20210118214521 54 355 3.0 9.0 0.00 0.00 0.00 35 1020.7
20210118214018 54 290 5.0 9.0 0.00 0.00 0.00 34 1020.7
20210118213516 54 249 5.0 10.0 0.00 0.00 0.00 34 1020.5
20210118213019 55 267 5.0 11.0 0.00 0.00 0.00 35 1020.5
20210118212508 55 252 5.0 13.0 0.00 0.00 0.00 34 1020.6
20210118212021 55 261 5.0 13.0 0.00 0.00 0.00 34 1020.5
20210118211511 55 290 0.0 6.0 0.00 0.00 0.00 35 1020.5
20210118211101 55 288 3.0 6.0 0.00 0.00 0.00 35 1020.4
20210118210600 54 276 3.0 11.0 0.00 0.00 0.00 34 1020.4
20210118210408 54 300 7.0 11.0 0.00 0.00 0.00 34 1020.4
20210118205603 54 280 6.0 13.0 0.00 0.00 0.00 34 1020.3
20210118205100 55 261 9.0 13.0 0.00 0.00 0.00 34 1020.3
20210118204802 55 262 3.0 12.0 0.00 0.00 0.00 33 1020.1
20210118204105 55 277 3.0 12.0 0.00 0.00 0.00 34 1020.3
20210118203558 55 252 6.0 12.0 0.00 0.00 0.00 34 1020.2
20210118203134 55 284 6.0 13.0 0.00 0.00 0.00 35 1020.2
20210118202612 55 217 6.0 13.0 0.00 0.00 0.00 35 1020.1
20210118202058 55 269 5.0 12.0 0.00 0.00 0.00 35 1020.3
20210118201655 54 285 9.0 12.0 0.00 0.00 0.00 34 1020.2
20210118201108 54 312 5.0 12.0 0.00 0.00 0.00 35 1020.2
20210118200609 54 286 7.0 14.0 0.00 0.00 0.00 35 1020.3
20210118200225 55 297 7.0 14.0 0.00 0.00 0.00 34 1020.3
20210118195556 54 283 7.0 15.0 0.00 0.00 0.00 35 1020.2
20210118195211 54 285 4.0 15.0 0.00 0.00 0.00 35 1020.2
20210118194653 54 290 6.0 13.0 0.00 0.00 0.00 37 1020.3
20210118194106 54 311 6.0 16.0 0.00 0.00 0.00 35 1020.3
20210118193555 54 271 5.0 12.0 0.00 0.00 0.00 35 1020.2
20210118193128 54 278 5.0 12.0 0.00 0.00 0.00 39 1020.2
20210118192553 54 265 5.0 12.0 0.00 0.00 0.00 38 1020.1
20210118192108 54 309 3.0 13.0 0.00 0.00 0.00 38 1020.1
20210118191627 54 265 7.0 17.0 0.00 0.00 0.00 35 1020.0
20210118191107 54 284 8.0 16.0 0.00 0.00 0.00 39 1020.0
20210118190551 53 251 7.0 16.0 0.00 0.00 0.00 39 1019.9
20210118190312 53 217 3.0 16.0 0.00 0.00 0.00 38 1020.0
20210118185558 53 279 7.0 17.0 0.00 0.00 0.00 39 1020.1
20210118185053 53 265 7.0 14.0 0.00 0.00 0.00 39 1020.2
20210118184637 53 240 7.0 13.0 0.00 0.00 0.00 40 1020.2
20210118184053 53 257 7.0 12.0 0.00 0.00 0.00 38 1020.3
20210118183549 53 267 7.0 13.0 0.00 0.00 0.00 40 1020.3